ATLAS 5 CENTAUR DEB, 47096

Orbit data source: Space-Track

ATLAS 5 CENTAUR DEB, 47096 is space debris in HEO originally from a launch on Wed, 17 Sep 2014 UTC launched from the Air Force Eastern Test Range (AFETR). Debris objects in space refer to the collection of defunct objects orbiting the Earth. Examples of debris include non-operational satellites, rocket bodies, and fragments generated from explosions, collisions, or faulty payload assembly.

Loading next visibility...
Identifier
47096, 2014-055DE
Orbit
HEO
Country
Flag of USUS
Related business
Flag of USUnited Launch Alliance/Lockheed Martin (US)
Manufacturer
Unknown
Mission
Spacecraft
Bus & Motor
Unknown
Mass
Unknown
Launch date (UTC)
2014-09-17 (12 years ago)
Launch vehicle
Unknown
Launch site
Air Force Eastern Test Range (AFETR)
Object type
Payload
Rocket body
Debris
Shape & HBR
Unknown shape, 1.1 m
Radar Cross Section
RCS unknown

Expand to show TLE details & history
Last TLE update: 6 days ago

TLE from 6 days ago
0 ATLAS 5 CENTAUR DEB
1 47096U 14055DE  26230.23577239 -.00000077  00000-0  00000-0 0  9997
2 47096  19.4730 160.7186 4839324 134.2352 277.3736  1.79154231 38238
Epoch: 2026-08-18T05:39Z
TLE epoch observation values (Epoch: 2026-08-18T05:39:30.734Z)
Latitude
0.00003°
Longitude
109.16715°
Altitude
26,763.701 km
Speed
3.184 km/s
True Right ascension
10h 42m 36s
True Declination
0° 00' 00"
Sunlit
Object was in daylight at epoch
Visualization orbit readout
Latitude
Unknown
Longitude
Unknown
Altitude
Unknown
Speed
Unknown
Apparent Right ascension
Unknown
Apparent Declination
Unknown
Sunlit
N/A
Visualization observer readout
Local Sidereal Time
16:02:56
Azimuth
Unknown
Elevation
Unknown
Doppler factor
Unknown
Orbital elements
Apogee altitude
36,119.082 km
Perigee altitude
8,401.133 km
Semi-major axis
28,638.245 km
Eccentricity
0.48393
Inclination
19.473°
RAAN
160.7186°
Arg. of periapsis
134.2352°
True anomaly
225.73008°
Mean anomaly
277.3736°
Eccentric anomaly
251.13564°
Mean motion
0.44784 °/min
Orbital period
803.86 mins
BSTAR
0
Loading maneuver chart data...
Computing Atmospheric mass density...

Documentation

Showing up to 5 results
|